FREGAT R/B, 52985

Orbit data source: Space-Track

FREGAT R/B, 52985 is space debris in MEO originally from a launch on Thu, 07 Jul 2022 UTC launched from the Plesetsk Missile And Space Complex (PKMTR). Debris objects in space refer to the collection of defunct objects orbiting the Earth. Examples of debris include non-operational satellites, rocket bodies, and fragments generated from explosions, collisions, or faulty payload assembly.

Loading next visibility...
Identifier
52985, 2022-075B
Orbit
MEO
Country
Flag of CISCIS
Related business
Manufacturer
Lavochkin
Mission
Spacecraft
Bus & Motor
FREGAT, Unknown motor
Mass
1,000 kg wet, 1,000 kg dry
Launch date (UTC)
2022-07-07 (4 years ago)
Launch vehicle
Unknown
Launch site
Plesetsk Missile And Space Complex (PKMTR)
Object type
Payload
Rocket body
Debris
Shape & HBR
Cyl, 1.7 m
Radar Cross Section
8.354 m², Large (>1 m²)

Expand to show TLE details & history
Last TLE update: 3 days ago

TLE from 3 days ago
0 FREGAT R/B
1 52985U 22075B   26170.82302571 -.00000064  00000-0  00000-0 0  9990
2 52985  64.3248 316.6165 0072993 119.3030 241.4202  2.08818890 30140
Epoch: 2026-06-19T19:45Z
TLE epoch observation values (Epoch: 2026-06-19T19:45:09.421Z)
Latitude
0.00005°
Longitude
112.26593°
Altitude
19,569.405 km
Speed
3.913 km/s
True Right ascension
21h 06m 24s
True Declination
0° 00' 00"
Sunlit
Object was in daylight at epoch
Visualization orbit readout
Latitude
Unknown
Longitude
Unknown
Altitude
Unknown
Speed
Unknown
Apparent Right ascension
Unknown
Apparent Declination
Unknown
Sunlit
N/A
Visualization observer readout
Local Sidereal Time
00:25:01
Azimuth
Unknown
Elevation
Unknown
Doppler factor
Unknown
Orbital elements
Apogee altitude
19,665.874 km
Perigee altitude
19,288.423 km
Semi-major axis
25,855.285 km
Eccentricity
0.0073
Inclination
64.3248°
RAAN
316.6165°
Arg. of periapsis
119.303°
True anomaly
240.68889°
Mean anomaly
241.4202°
Eccentric anomaly
241.05423°
Mean motion
0.52206 °/min
Orbital period
689.58 mins
BSTAR
0
Loading maneuver chart data...
Computing Atmospheric mass density...
Loading historical data...
Loading historical data...
Loading historical data...
Loading historical data...
Loading historical data...
Loading historical data...
Loading historical data...
Other satellites on launch #75 in the year 2022 (2022-07-07 UTC)

Documentation

Showing up to 5 results
|